EAG5502 SBGR-SBPA

Flight info

Callsign EAG5502
Flight time 1h 11m
Altitude 32000
Route UBSOD UZ38 VUKMO
Aircraft B739/M-SDE2E3FGHIRWXY/LB1

Departure

Time 2026-05-09 01:01
Airport São Paulo/Guarulhos–Governor André Franco Montoro International Airport (SBGR)

Arrival

Time 2026-05-09 02:13
Airport Porto Alegre-Salgado Filho International Airport (SBPA)
Time Latitude Longitude Altitude Speed Heading
2026-05-09 00:46 -23.42867 -46.48349 2460 ft 0 kts 84°
2026-05-09 00:53 -23.42867 -46.48350 2460 ft 2 kts 84°
2026-05-09 00:53 -23.42868 -46.48376 2460 ft 4 kts 98°
2026-05-09 00:53 -23.42860 -46.48403 2462 ft 4 kts 125°
2026-05-09 00:54 -23.42842 -46.48422 2465 ft 4 kts 159°
2026-05-09 00:54 -23.42820 -46.48427 2462 ft 1 kts 180°
2026-05-09 00:58 -23.42828 -46.48428 2462 ft 6 kts 182°
2026-05-09 00:58 -23.42882 -46.48432 2460 ft 8 kts 191°
2026-05-09 00:58 -23.42934 -46.48447 2463 ft 8 kts 189°
2026-05-09 00:58 -23.42994 -46.48451 2464 ft 10 kts 181°
2026-05-09 00:59 -23.43060 -46.48441 2462 ft 9 kts 165°
2026-05-09 00:59 -23.43122 -46.48423 2462 ft 9 kts 163°
2026-05-09 00:59 -23.43186 -46.48402 2464 ft 10 kts 163°
2026-05-09 00:59 -23.43254 -46.48380 2465 ft 10 kts 163°
2026-05-09 01:00 -23.43320 -46.48359 2462 ft 10 kts 163°
2026-05-09 01:00 -23.43390 -46.48336 2468 ft 12 kts 162°
2026-05-09 01:00 -23.43408 -46.48258 2459 ft 12 kts 75°
2026-05-09 01:00 -23.43381 -46.48160 2465 ft 28 kts 73°
2026-05-09 01:01 -23.43254 -46.47690 2464 ft 100 kts 73°
2026-05-09 01:01 -23.43000 -46.46747 2464 ft 157 kts 73°
2026-05-09 01:01 -23.42646 -46.45434 2503 ft 202 kts 71°
2026-05-09 01:01 -23.42253 -46.43920 3147 ft 210 kts 71°
2026-05-09 01:02 -23.41877 -46.42370 3890 ft 217 kts 69°
2026-05-09 01:02 -23.41394 -46.40805 4406 ft 231 kts 66°
2026-05-09 01:02 -23.40846 -46.39076 4628 ft 252 kts 66°
2026-05-09 01:02 -23.40317 -46.37145 4947 ft 279 kts 79°
2026-05-09 01:03 -23.40338 -46.35009 5918 ft 285 kts 95°
2026-05-09 01:03 -23.41015 -46.32930 6713 ft 302 kts 120°
2026-05-09 01:03 -23.42501 -46.31302 7547 ft 309 kts 147°
2026-05-09 01:03 -23.44502 -46.30460 8366 ft 311 kts 175°
2026-05-09 01:04 -23.46627 -46.30636 9255 ft 305 kts 204°
2026-05-09 01:04 -23.48453 -46.31734 10063 ft 298 kts 226°
2026-05-09 01:04 -23.50010 -46.33274 10614 ft 312 kts 229°
2026-05-09 01:04 -23.51630 -46.34998 10824 ft 338 kts 230°
2026-05-09 01:05 -23.53359 -46.36874 11003 ft 363 kts 230°
2026-05-09 01:05 -23.55212 -46.38880 11151 ft 386 kts 229°
2026-05-09 01:05 -23.59225 -46.43165 12226 ft 404 kts 228°
2026-05-09 01:06 -23.61190 -46.45242 12970 ft 405 kts 227°
2026-05-09 01:06 -23.63221 -46.47387 13652 ft 409 kts 227°
2026-05-09 01:06 -23.65272 -46.49551 14248 ft 412 kts 227°
2026-05-09 01:06 -23.67337 -46.51733 14763 ft 416 kts 227°
2026-05-09 01:07 -23.69425 -46.53941 15298 ft 420 kts 227°
2026-05-09 01:07 -23.71534 -46.56172 15830 ft 423 kts 227°
2026-05-09 01:07 -23.73654 -46.58416 16334 ft 427 kts 227°
2026-05-09 01:07 -23.75796 -46.60685 16797 ft 431 kts 227°
2026-05-09 01:08 -23.77958 -46.62977 17257 ft 435 kts 227°
2026-05-09 01:08 -23.80138 -46.65288 17711 ft 439 kts 227°
2026-05-09 01:08 -23.82336 -46.67620 18160 ft 442 kts 227°
2026-05-09 01:08 -23.84552 -46.69972 18544 ft 446 kts 228°
2026-05-09 01:09 -23.86782 -46.72340 18971 ft 447 kts 228°
2026-05-09 01:09 -23.89013 -46.74709 19431 ft 448 kts 228°
2026-05-09 01:09 -23.91248 -46.77083 19865 ft 448 kts 228°
2026-05-09 01:09 -23.93488 -46.79466 20295 ft 450 kts 229°
2026-05-09 01:10 -23.95735 -46.81856 20711 ft 452 kts 229°
2026-05-09 01:10 -23.97986 -46.84254 21117 ft 453 kts 229°
2026-05-09 01:10 -24.00251 -46.86668 21520 ft 455 kts 229°
2026-05-09 01:10 -24.02524 -46.89090 21927 ft 456 kts 229°
2026-05-09 01:11 -24.04799 -46.91515 22324 ft 457 kts 229°
2026-05-09 01:11 -24.07083 -46.93951 22677 ft 460 kts 229°
2026-05-09 01:11 -24.09375 -46.96401 22981 ft 462 kts 229°
2026-05-09 01:11 -24.11670 -46.98852 23340 ft 461 kts 229°
2026-05-09 01:12 -24.13971 -47.01310 23713 ft 461 kts 229°
2026-05-09 01:12 -24.16268 -47.03765 23968 ft 463 kts 229°
2026-05-09 01:12 -24.17797 -47.05401 24111 ft 466 kts 229°
2026-05-09 01:12 -24.20121 -47.07887 24370 ft 467 kts 229°
2026-05-09 01:13 -24.22442 -47.10371 24661 ft 467 kts 229°
2026-05-09 01:13 -24.24767 -47.12860 24961 ft 467 kts 229°
2026-05-09 01:13 -24.27219 -47.15210 25232 ft 473 kts 221°
2026-05-09 01:13 -24.30913 -47.17849 25379 ft 482 kts 217°
2026-05-09 01:14 -24.33774 -47.19787 25658 ft 483 kts 217°
2026-05-09 01:14 -24.35705 -47.21088 25912 ft 482 kts 217°
2026-05-09 01:14 -24.38554 -47.23018 26215 ft 481 kts 217°
2026-05-09 01:14 -24.41393 -47.24953 26494 ft 480 kts 217°
2026-05-09 01:15 -24.44183 -47.26878 26745 ft 480 kts 217°
2026-05-09 01:15 -24.47036 -47.28860 27031 ft 479 kts 217°
2026-05-09 01:15 -24.49808 -47.30792 27338 ft 478 kts 217°
2026-05-09 01:15 -24.52611 -47.32748 27638 ft 477 kts 217°
2026-05-09 01:16 -24.55414 -47.34706 27878 ft 478 kts 217°
2026-05-09 01:16 -24.58217 -47.36663 28148 ft 477 kts 217°
2026-05-09 01:16 -24.61010 -47.38613 28475 ft 475 kts 217°
2026-05-09 01:17 -24.66582 -47.42505 29023 ft 474 kts 217°
2026-05-09 01:17 -24.69364 -47.44450 29287 ft 473 kts 217°
2026-05-09 01:17 -24.72137 -47.46389 29576 ft 472 kts 217°
2026-05-09 01:17 -24.74905 -47.48326 29868 ft 471 kts 217°
2026-05-09 01:18 -24.77667 -47.50259 30096 ft 470 kts 217°
2026-05-09 01:18 -24.80424 -47.52191 30298 ft 470 kts 217°
2026-05-09 01:18 -24.83177 -47.54121 30498 ft 470 kts 217°
2026-05-09 01:18 -24.85935 -47.56056 30709 ft 470 kts 217°
2026-05-09 01:19 -24.88685 -47.57985 30996 ft 469 kts 217°
2026-05-09 01:19 -24.91438 -47.59918 31335 ft 467 kts 218°
2026-05-09 01:19 -24.94179 -47.61842 31637 ft 467 kts 218°
2026-05-09 01:19 -24.96914 -47.63765 31900 ft 466 kts 218°
2026-05-09 01:20 -25.02401 -47.67626 31900 ft 467 kts 218°
2026-05-09 01:20 -25.07866 -47.71473 31901 ft 465 kts 218°
2026-05-09 01:21 -25.13275 -47.75285 31920 ft 464 kts 218°
2026-05-09 01:21 -25.18707 -47.79119 31903 ft 463 kts 218°
2026-05-09 01:22 -25.24134 -47.82954 31909 ft 463 kts 218°
2026-05-09 01:22 -25.29564 -47.86794 31898 ft 463 kts 218°
2026-05-09 01:23 -25.34984 -47.90640 31915 ft 464 kts 218°
2026-05-09 01:23 -25.40415 -47.94509 31912 ft 465 kts 218°
2026-05-09 01:24 -25.45854 -47.98389 31901 ft 466 kts 218°
2026-05-09 01:24 -25.51301 -48.02277 31908 ft 466 kts 219°
2026-05-09 01:25 -25.56759 -48.06177 31901 ft 467 kts 219°
2026-05-09 01:25 -25.62226 -48.10087 31901 ft 468 kts 219°
2026-05-09 01:26 -25.67703 -48.13987 31899 ft 468 kts 218°
2026-05-09 01:26 -25.73189 -48.17877 31913 ft 468 kts 218°
2026-05-09 01:27 -25.78678 -48.21777 31899 ft 469 kts 218°
2026-05-09 01:27 -25.84134 -48.25661 31906 ft 469 kts 219°
2026-05-09 01:28 -25.89635 -48.29583 31898 ft 470 kts 219°
2026-05-09 01:28 -25.95139 -48.33511 31896 ft 471 kts 219°
2026-05-09 01:29 -26.00650 -48.37449 31895 ft 471 kts 219°
2026-05-09 01:29 -26.06163 -48.41392 31898 ft 471 kts 219°
2026-05-09 01:30 -26.11674 -48.45339 31907 ft 472 kts 219°
2026-05-09 01:30 -26.17195 -48.49297 31888 ft 472 kts 219°
2026-05-09 01:31 -26.22715 -48.53260 31890 ft 472 kts 219°
2026-05-09 01:31 -26.28233 -48.57225 31894 ft 472 kts 219°
2026-05-09 01:32 -26.33739 -48.61203 31891 ft 471 kts 219°
2026-05-09 01:32 -26.39239 -48.65188 31893 ft 471 kts 220°
2026-05-09 01:33 -26.44737 -48.69174 31896 ft 471 kts 220°
2026-05-09 01:33 -26.50219 -48.73165 31889 ft 470 kts 220°
2026-05-09 01:34 -26.55685 -48.77177 31892 ft 470 kts 220°
2026-05-09 01:34 -26.61143 -48.81188 31893 ft 469 kts 220°
2026-05-09 01:35 -26.66599 -48.85196 31913 ft 469 kts 221°
2026-05-09 01:35 -26.72064 -48.89196 31895 ft 469 kts 220°
2026-05-09 01:36 -26.77533 -48.93187 31912 ft 469 kts 220°
2026-05-09 01:36 -26.83007 -48.97180 31912 ft 469 kts 220°
2026-05-09 01:37 -26.88478 -49.01148 31907 ft 469 kts 221°
2026-05-09 01:37 -26.93922 -49.05171 31916 ft 469 kts 221°
2026-05-09 01:38 -26.99379 -49.09201 31932 ft 470 kts 221°
2026-05-09 01:38 -27.04850 -49.13231 31904 ft 470 kts 221°
2026-05-09 01:39 -27.10325 -49.17254 31923 ft 470 kts 221°
2026-05-09 01:39 -27.15790 -49.21288 31938 ft 470 kts 221°
2026-05-09 01:40 -27.21259 -49.25318 31933 ft 470 kts 221°
2026-05-09 01:40 -27.26688 -49.29316 31937 ft 468 kts 221°
2026-05-09 01:41 -27.32137 -49.33360 31953 ft 470 kts 222°
2026-05-09 01:41 -27.37632 -49.37431 31951 ft 470 kts 222°
2026-05-09 01:42 -27.43066 -49.41459 31965 ft 471 kts 222°
2026-05-09 01:42 -27.48540 -49.45524 31974 ft 472 kts 222°
2026-05-09 01:43 -27.54027 -49.49602 31983 ft 473 kts 222°
2026-05-09 01:43 -27.59528 -49.53683 32011 ft 474 kts 222°
2026-05-09 01:44 -27.65049 -49.57766 31985 ft 475 kts 222°
2026-05-09 01:44 -27.70568 -49.61854 31996 ft 475 kts 222°
2026-05-09 01:45 -27.76100 -49.65943 31981 ft 476 kts 221°
2026-05-09 01:45 -27.81696 -49.69940 31982 ft 476 kts 221°
2026-05-09 01:46 -27.87304 -49.73912 31983 ft 475 kts 221°
2026-05-09 01:46 -27.92899 -49.77895 32004 ft 476 kts 222°
2026-05-09 01:47 -27.98488 -49.81891 32008 ft 475 kts 222°
2026-05-09 01:47 -28.04062 -49.85885 32002 ft 475 kts 222°
2026-05-09 01:48 -28.09646 -49.89891 31986 ft 475 kts 222°
2026-05-09 01:48 -28.15228 -49.93900 31986 ft 475 kts 222°
2026-05-09 01:49 -28.20816 -49.97918 32038 ft 476 kts 223°
2026-05-09 01:49 -28.26380 -50.01926 31985 ft 477 kts 223°
2026-05-09 01:50 -28.31986 -50.05966 31974 ft 477 kts 223°
2026-05-09 01:50 -28.37587 -50.10007 31974 ft 477 kts 223°
2026-05-09 01:51 -28.43181 -50.14034 31973 ft 477 kts 222°
2026-05-09 01:51 -28.48793 -50.18008 31973 ft 473 kts 224°
2026-05-09 01:52 -28.54320 -50.22098 31979 ft 475 kts 224°
2026-05-09 01:52 -28.59884 -50.26161 31967 ft 475 kts 224°
2026-05-09 01:53 -28.62649 -50.28160 31937 ft 463 kts 224°
2026-05-09 01:53 -28.65314 -50.30080 31951 ft 445 kts 224°
2026-05-09 01:53 -28.67882 -50.31939 31935 ft 429 kts 225°
2026-05-09 01:53 -28.70350 -50.33730 31939 ft 413 kts 225°
2026-05-09 01:54 -28.72765 -50.35459 31518 ft 413 kts 223°
2026-05-09 01:54 -28.75396 -50.36951 30441 ft 431 kts 216°
2026-05-09 01:54 -28.78202 -50.38323 28983 ft 445 kts 214°
2026-05-09 01:54 -28.81118 -50.39683 27422 ft 460 kts 213°
2026-05-09 01:55 -28.84114 -50.41063 25902 ft 470 kts 212°
2026-05-09 01:55 -28.87165 -50.42474 24536 ft 476 kts 212°
2026-05-09 01:55 -28.90220 -50.43951 23078 ft 470 kts 220°
2026-05-09 01:55 -28.92997 -50.45808 22340 ft 453 kts 219°
2026-05-09 01:56 -28.95841 -50.47396 21939 ft 453 kts 212°
2026-05-09 01:56 -28.98756 -50.48783 21333 ft 461 kts 211°
2026-05-09 01:56 -29.01759 -50.50192 20690 ft 469 kts 211°
2026-05-09 01:56 -29.04775 -50.51599 19961 ft 467 kts 210°
2026-05-09 01:57 -29.07728 -50.52975 19265 ft 464 kts 211°
2026-05-09 01:57 -29.10707 -50.54370 18550 ft 461 kts 210°
2026-05-09 01:57 -29.13650 -50.55754 17775 ft 457 kts 210°
2026-05-09 01:57 -29.16569 -50.57134 17201 ft 446 kts 210°
2026-05-09 01:58 -29.19406 -50.58474 16287 ft 436 kts 211°
2026-05-09 01:58 -29.22170 -50.59783 15576 ft 428 kts 211°
2026-05-09 01:58 -29.24911 -50.61090 14892 ft 426 kts 211°
2026-05-09 01:58 -29.27641 -50.62397 14208 ft 425 kts 211°
2026-05-09 01:59 -29.30364 -50.63700 13488 ft 423 kts 210°
2026-05-09 01:59 -29.33077 -50.64998 12814 ft 420 kts 210°
2026-05-09 01:59 -29.35776 -50.66161 12314 ft 411 kts 207°
2026-05-09 01:59 -29.38405 -50.67380 11566 ft 400 kts 210°
2026-05-09 02:00 -29.40915 -50.68625 11156 ft 384 kts 210°
2026-05-09 02:00 -29.43325 -50.69818 10913 ft 373 kts 210°
2026-05-09 02:00 -29.45671 -50.70966 10753 ft 359 kts 210°
2026-05-09 02:00 -29.47930 -50.72061 10612 ft 347 kts 209°
2026-05-09 02:01 -29.50106 -50.73131 10464 ft 335 kts 210°
2026-05-09 02:01 -29.52223 -50.74161 10337 ft 326 kts 209°
2026-05-09 02:01 -29.54287 -50.75144 10219 ft 316 kts 209°
2026-05-09 02:01 -29.56289 -50.76097 10098 ft 306 kts 209°
2026-05-09 02:02 -29.58227 -50.77021 9996 ft 296 kts 210°
2026-05-09 02:02 -29.59467 -50.77612 9982 ft 287 kts 210°
2026-05-09 02:02 -29.61312 -50.78498 9482 ft 292 kts 210°
2026-05-09 02:02 -29.63806 -50.79700 8967 ft 293 kts 210°
2026-05-09 02:03 -29.65683 -50.80604 8627 ft 291 kts 210°
2026-05-09 02:03 -29.67528 -50.81491 8292 ft 291 kts 210°
2026-05-09 02:03 -29.69393 -50.82387 7949 ft 290 kts 210°
2026-05-09 02:03 -29.71251 -50.83281 7608 ft 289 kts 210°
2026-05-09 02:04 -29.72503 -50.83883 7391 ft 288 kts 210°
2026-05-09 02:04 -29.74351 -50.84772 7041 ft 288 kts 210°
2026-05-09 02:04 -29.76194 -50.85658 6712 ft 286 kts 210°
2026-05-09 02:04 -29.78000 -50.86574 6367 ft 281 kts 214°
2026-05-09 02:05 -29.79771 -50.87507 6068 ft 279 kts 208°
2026-05-09 02:05 -29.81582 -50.88322 5702 ft 278 kts 208°
2026-05-09 02:05 -29.83332 -50.89122 5372 ft 271 kts 208°
2026-05-09 02:05 -29.85052 -50.89932 5105 ft 262 kts 209°
2026-05-09 02:06 -29.86669 -50.90701 5037 ft 242 kts 209°
2026-05-09 02:06 -29.88167 -50.91418 4903 ft 225 kts 210°
2026-05-09 02:06 -29.89554 -50.92083 4765 ft 207 kts 211°
2026-05-09 02:07 -29.92065 -50.93257 4211 ft 191 kts 209°
2026-05-09 02:07 -29.93291 -50.93806 3882 ft 188 kts 210°
2026-05-09 02:07 -29.94492 -50.94343 3660 ft 180 kts 209°
2026-05-09 02:07 -29.95677 -50.94877 3567 ft 186 kts 209°
2026-05-09 02:08 -29.96897 -50.95426 3485 ft 190 kts 209°
2026-05-09 02:08 -29.98127 -50.95977 3377 ft 189 kts 209°
2026-05-09 02:08 -29.99291 -50.96649 3110 ft 182 kts 231°
2026-05-09 02:08 -29.99736 -50.97840 2946 ft 155 kts 274°
2026-05-09 02:09 -29.99760 -50.99091 2771 ft 159 kts 270°
2026-05-09 02:09 -29.99785 -51.00354 2522 ft 152 kts 272°
2026-05-09 02:09 -29.99769 -51.01512 2319 ft 138 kts 272°
2026-05-09 02:09 -29.99748 -51.02577 2177 ft 133 kts 272°
2026-05-09 02:10 -29.99726 -51.03630 1990 ft 128 kts 271°
2026-05-09 02:10 -29.99706 -51.04639 1819 ft 124 kts 271°
2026-05-09 02:10 -29.99687 -51.05615 1670 ft 124 kts 271°
2026-05-09 02:10 -29.99667 -51.06619 1505 ft 125 kts 270°
2026-05-09 02:11 -29.99647 -51.07628 1336 ft 129 kts 270°
2026-05-09 02:11 -29.99626 -51.08679 1162 ft 131 kts 270°
2026-05-09 02:11 -29.99606 -51.09732 976 ft 133 kts 271°
2026-05-09 02:11 -29.99585 -51.10814 816 ft 137 kts 271°
2026-05-09 02:12 -29.99563 -51.11929 626 ft 140 kts 271°
2026-05-09 02:12 -29.99541 -51.13060 439 ft 141 kts 272°
2026-05-09 02:12 -29.99527 -51.14185 314 ft 143 kts 272°
2026-05-09 02:12 -29.99497 -51.15333 155 ft 143 kts 273°
2026-05-09 02:13 -29.99476 -51.16471 33 ft 138 kts 271°
2026-05-09 02:13 -29.99456 -51.17443 17 ft 95 kts 271°
2026-05-09 02:13 -29.99446 -51.17960 20 ft 40 kts 271°
2026-05-09 02:13 -29.99441 -51.18196 20 ft 17 kts 271°
2026-05-09 02:14 -29.99369 -51.18237 19 ft 16 kts 50°
2026-05-09 02:14 -29.99327 -51.18122 20 ft 15 kts 69°
2026-05-09 02:14 -29.99289 -51.18010 18 ft 15 kts 75°
2026-05-09 02:14 -29.99282 -51.17896 18 ft 14 kts 91°
2026-05-09 02:15 -29.99284 -51.17786 18 ft 13 kts 91°
2026-05-09 02:15 -29.99249 -51.17701 18 ft 13 kts 10°
2026-05-09 02:15 -29.99173 -51.17663 20 ft 13 kts 67°
2026-05-09 02:15 -29.99178 -51.17564 18 ft 12 kts 93°
2026-05-09 02:16 -29.99147 -51.17525 18 ft 5 kts
2026-05-09 02:16 -29.99136 -51.17524 18 ft 0 kts